This is the latest recevied weather packets stored in our database for station/object KC3VCX. If no packets are shown the sender has not sent any weather packets the latest 10 day(s).
| Time | Temp. | Humidity | Pressure | Rain* | Wind** | Luminosity | Snow |
|---|---|---|---|---|---|---|---|
| 1777556858 | 7.22° C | 91% | 1012.8 hPa | 0 mm | - | 136 W/m² | - |
| 1777556555 | 7.22° C | 92% | 1012.5 hPa | 0 mm | - | 146 W/m² | - |
| 1777556254 | 7.22° C | 92% | 1012.5 hPa | 0 mm | - | 159 W/m² | - |
| 1777555950 | 7.22° C | 92% | 1012.6 hPa | 1.27 mm | - | 137 W/m² | - |
| 1777555645 | 7.78° C | 92% | 1012.4 hPa | 3.05 mm | - | 57 W/m² | - |
| 1777555337 | 7.78° C | 91% | 1012.4 hPa | 3.05 mm | - | 47 W/m² | - |
| 1777555034 | 7.78° C | 91% | 1012.3 hPa | 4.32 mm | - | 52 W/m² | - |
| 1777554731 | 7.78° C | 91% | 1012.2 hPa | 6.1 mm | - | 64 W/m² | - |
| 1777554428 | 7.78° C | 91% | 1012 hPa | 4.83 mm | - | 37 W/m² | - |
| 1777554124 | 7.78° C | 90% | 1012.2 hPa | 3.56 mm | - | 41 W/m² | - |
| 1777553821 | 7.78° C | 88% | 1012.3 hPa | 4.83 mm | - | 50 W/m² | - |
| 1777553517 | 8.33° C | 88% | 1011.9 hPa | 4.32 mm | - | 61 W/m² | - |
| 1777553213 | 8.33° C | 86% | 1011.9 hPa | 1.27 mm | - | 97 W/m² | - |
| 1777552904 | 8.89° C | 84% | 1011.8 hPa | 0 mm | - | 111 W/m² | - |
| 1777552598 | 8.89° C | 84% | 1011.8 hPa | 0 mm | - | 97 W/m² | - |
| 1777552295 | 8.89° C | 85% | 1011.8 hPa | 0 mm | - | 64 W/m² | - |
| 1777551991 | 8.89° C | 85% | 1011.7 hPa | 0 mm | - | 55 W/m² | - |
| 1777551689 | 8.89° C | 85% | 1011.7 hPa | 0 mm | - | 88 W/m² | - |
| 1777551387 | 8.89° C | 85% | 1011.8 hPa | 0 mm | - | 82 W/m² | - |
| 1777551083 | 8.89° C | 85% | 1011.7 hPa | 0 mm | - | 82 W/m² | - |
| 1777550780 | 8.89° C | 86% | 1011.7 hPa | 0 mm | - | 112 W/m² | - |
| 1777550476 | 8.89° C | 85% | 1011.7 hPa | 0 mm | - | 93 W/m² | - |
| 1777550173 | 8.89° C | 86% | 1011.8 hPa | 0 mm | - | 117 W/m² | - |
| 1777549869 | 8.89° C | 86% | 1011.6 hPa | 0 mm | - | 98 W/m² | - |
| 1777549565 | 8.33° C | 88% | 1011.7 hPa | 0 mm | - | 86 W/m² | - |
* Rain latest hour (hover to see other rain measurements)
** Current wind speed in m/s (hover to see current wind gust speed)